This demonstration page uses our WeatherBlox Daily Observations layout. Learn more.

Left ArrowRight Arrow

39.08367, -84.50855

Hourly Observations for November 25, 2022

Temp ( °F °C ) Dew Point ( °F °C ) Humidity (%) Winds ( mph kmh ) Pressure ( in mb ) Visibility ( mi km ) Precip ( " mm )
12:53 am 00:53 Cloudy 54 12.2 40 4.4 59 59 WSW 8 13 30.09 1019 10 16 0.00 0.00
1:53 am 01:53 Cloudy 55 12.8 39 3.9 55 55 WSW 9 15 30.09 1019 10 16 0.00 0.00
2:38 am 02:38 Cloudy with Light Rain 54 12.2 40 4.4 59 59 WSW 8 13 30.10 1019 9 14 0.01 0.13
2:53 am 02:53 Cloudy with Light Rain 52 11.1 44 6.7 74 74 WSW 12 19 30.10 1019 10 16 0.01 0.13
3:24 am 03:24 Cloudy with Light Rain 49 9.4 46 7.8 90 90 WSW 8 13 30.12 1020 4 6 0.01 0.25
3:53 am 03:53 Cloudy with Light Rain 49 9.4 47 8.3 93 93 WSW 6 9 30.11 1020 5 8 0.01 0.25
4:13 am 04:13 Cloudy with Light Rain 49 9.4 47 8.3 93 93 WSW 6 9 30.12 1020 3 4 0.01 0.13
4:22 am 04:22 Cloudy with Light Rain 49 9.4 48 8.9 97 97 SW 5 7 30.12 1020 2 2 0.02 0.51
4:34 am 04:34 Cloudy with Light Rain 48 8.9 48 8.9 100 100 SW 5 7 30.12 1020 2 3 0.03 0.76
4:53 am 04:53 Cloudy with Mist and Fog 49 9.4 48 8.9 97 97 WSW 6 9 30.11 1020 5 8 0.03 0.76
5:08 am 05:08 Cloudy with Mist and Fog 49 9.4 48 8.9 97 97 SW 5 7 30.12 1020 5 8 0.00 0.00
5:53 am 05:53 Cloudy with Light Rain 49 9.4 48 8.9 97 97 W 5 7 30.12 1020 2 3 0.01 0.25
6:03 am 06:03 Cloudy with Light Rain 49 9.4 48 8.9 97 97 W 3 6 30.14 1021 2 3 0.01 0.13
6:16 am 06:16 Cloudy with Light Rain 49 9.4 48 8.9 97 97 W 6 9 30.14 1021 3 5 0.01 0.13
6:53 am 06:53 Cloudy with Mist and Fog 49 9.4 47 8.3 93 93 W 5 7 30.14 1021 6 10 0.01 0.13
7:42 am 07:42 Cloudy 50 10 47 8.3 89 89 WNW 3 6 30.17 1022 7 11 0.00 0.00
7:53 am 07:53 Cloudy with Mist and Fog 49 9.4 47 8.3 93 93 Calm 30.16 1021 6 10 0.00 0.00
8:53 am 08:53 Cloudy with Mist and Fog 50 10 47 8.3 89 89 W 5 7 30.16 1021 6 10 0.00 0.00
9:00 am 09:00 Cloudy with Mist and Fog 50 10 47 8.3 89 89 W 5 7 30.17 1022 6 10 0.00 0.00
9:30 am 09:30 Cloudy with Mist and Fog 50 10 46 7.8 86 86 NW 8 13 30.19 1022 6 10 0.00 0.00
9:53 am 09:53 Cloudy with Mist and Fog 50 10 46 7.8 86 86 NW 12 19 30.19 1022 6 10 0.00 0.00
10:53 am 10:53 Cloudy with Haze 50 10 43 6.1 77 77 NW 9 15 30.20 1023 5 8 0.00 0.00
11:53 am 11:53 Mostly Cloudy 51 10.6 42 5.6 71 71 W 7 11 30.19 1023 7 11 0.00 0.00
12:53 pm 12:53 Hazy 54 12.2 42 5.6 64 64 W 9 15 30.18 1022 6 10 0.00 0.00
1:53 pm 13:53 Hazy 55 12.8 39 3.9 55 55 WNW 8 13 30.17 1022 6 10 0.00 0.00
2:53 pm 14:53 Hazy 56 13.3 37 2.8 49 49 NW 6 9 30.18 1022 6 10 0.00 0.00
3:53 pm 15:53 Sunny 56 13.3 35 1.7 45 45 NW 7 11 30.18 1022 9 14 0.00 0.00
4:53 pm 16:53 Sunny 52 11.1 32 0 46 46 NNW 7 11 30.18 1022 10 16 0.00 0.00
5:53 pm 17:53 Clear 49 9.4 32 0 52 52 WNW 6 9 30.19 1022 10 16 0.00 0.00
6:53 pm 18:53 Clear 39 3.9 33 0.6 79 79 Calm 30.20 1023 10 16 0.00 0.00
7:53 pm 19:53 Clear 36 2.2 31 -0.6 82 82 Calm 30.22 1023 10 16 0.00 0.00
8:53 pm 20:53 Clear 36 2.2 32 0 85 85 Calm 30.23 1024 9 14 0.00 0.00
9:53 pm 21:53 Clear 34 1.1 31 -0.6 88 88 Calm 30.24 1024 10 16 0.00 0.00
10:53 pm 22:53 Clear with Mist and Fog 32 0 29 -1.7 88 88 Calm 30.25 1024 5 8 0.00 0.00
11:53 pm 23:53 Clear with Mist and Fog 29 -1.7 28 -2.2 96 96 Calm 30.25 1024 3 4 0.00 0.00

Powered by AerisWeather